Location: Bakhuizen
(52.8696°N, 5.4575°E)
Time: 20:36:31
(UTC+00:00)

Gbstr 26 Del rocket - Pass Details

Date: 11 May 2021
Orbit: 493 x 1263 km, 51.8° (Epoch: 20 June)

Event Time Altitude Azimuth Distance (km) Brightness Sun altitude
Rises 22:09:07 0° 284° (WNW) 4,123 7.8 -16.6°
Reaches altitude 10° 22:12:07 10° 281° (WNW) 3,086 7.0 -16.8°
Maximum altitude 22:19:31 64° 203° (SSW) 1,139 4.1 -17.2°
Enters shadow 22:23:51 21° 128° (SE) 1,973 5.1 -17.4°
